TimeMDT,TemperatureF,Dew PointF,Humidity,Sea Level PressureIn,VisibilityMPH,Wind Direction,Wind SpeedMPH,Gust SpeedMPH,PrecipitationIn,Events,Conditions,WindDirDegrees,DateUTC
12:12 AM,41.0,26.6,57,30.31,10.0,SSE,11.5,25.3,N/A,,Clear,150,2013-05-23 06:12:00
12:32 AM,41.0,24.8,53,30.31,10.0,SSE,10.4,25.3,N/A,,Clear,150,2013-05-23 06:32:00
12:52 AM,41.0,24.8,53,30.31,10.0,SSE,18.4,23.0,N/A,,Clear,160,2013-05-23 06:52:00
1:12 AM,41.0,24.8,53,30.30,10.0,SE,12.7,26.5,N/A,,Clear,140,2013-05-23 07:12:00
1:32 AM,41.0,23.0,49,30.30,10.0,SSE,13.8,17.3,N/A,,Clear,150,2013-05-23 07:32:00
1:52 AM,41.0,24.8,53,30.29,10.0,SSE,20.7,27.6,N/A,,Clear,150,2013-05-23 07:52:00
2:12 AM,41.0,24.8,53,30.30,10.0,SSE,16.1,27.6,N/A,,Clear,160,2013-05-23 08:12:00
2:32 AM,41.0,26.6,57,30.29,10.0,SSE,20.7,25.3,N/A,,Clear,150,2013-05-23 08:32:00
2:52 AM,41.0,26.6,57,30.29,10.0,SE,17.3,24.2,N/A,,Clear,140,2013-05-23 08:52:00
3:12 AM,41.0,28.4,61,30.29,10.0,SE,19.6,27.6,N/A,,Clear,140,2013-05-23 09:12:00
3:32 AM,41.0,26.6,57,30.29,10.0,SE,13.8,24.2,N/A,,Clear,140,2013-05-23 09:32:00
3:52 AM,41.0,26.6,57,30.29,10.0,SSE,16.1,19.6,N/A,,Clear,150,2013-05-23 09:52:00
4:12 AM,41.0,26.6,57,30.29,10.0,SSE,17.3,24.2,N/A,,Clear,150,2013-05-23 10:12:00
4:32 AM,39.2,26.6,61,30.29,10.0,SSE,15.0,20.7,N/A,,Clear,160,2013-05-23 10:32:00
4:52 AM,37.4,26.6,65,30.29,10.0,SSE,21.9,25.3,N/A,,Clear,160,2013-05-23 10:52:00
5:12 AM,37.4,28.4,70,30.29,10.0,SSE,16.1,21.9,N/A,,Clear,150,2013-05-23 11:12:00
5:32 AM,37.4,26.6,65,30.29,10.0,SSE,16.1,25.3,N/A,,Clear,160,2013-05-23 11:32:00
5:52 AM,37.4,26.6,65,30.30,10.0,South,18.4,-,N/A,,Clear,190,2013-05-23 11:52:00
6:12 AM,37.4,28.4,70,30.30,10.0,SSE,13.8,21.9,N/A,,Clear,160,2013-05-23 12:12:00
6:32 AM,37.4,30.2,75,30.31,10.0,SSE,10.4,18.4,N/A,,Clear,160,2013-05-23 12:32:00
6:52 AM,37.4,28.4,70,30.30,10.0,SSE,21.9,26.5,N/A,,Clear,160,2013-05-23 12:52:00
7:12 AM,41.0,26.6,57,30.30,10.0,SSE,18.4,-,N/A,,Clear,160,2013-05-23 13:12:00
7:32 AM,41.0,26.6,57,30.30,10.0,South,12.7,17.3,N/A,,Clear,170,2013-05-23 13:32:00
7:52 AM,41.0,26.6,57,30.31,10.0,SSE,4.6,8.1,N/A,,Clear,160,2013-05-23 13:52:00
8:12 AM,41.0,26.6,57,30.31,10.0,South,16.1,21.9,N/A,,Clear,180,2013-05-23 14:12:00
8:32 AM,41.0,23.0,49,30.31,10.0,SSE,23.0,35.7,N/A,,Clear,150,2013-05-23 14:32:00
8:52 AM,41.0,26.6,57,30.32,10.0,SSE,23.0,28.8,N/A,,Clear,160,2013-05-23 14:52:00
9:12 AM,44.6,19.4,37,30.33,10.0,SSE,16.1,21.9,N/A,,Clear,150,2013-05-23 15:12:00
9:32 AM,44.6,17.6,34,30.33,10.0,South,23.0,29.9,N/A,,Clear,170,2013-05-23 15:32:00
9:52 AM,44.6,15.8,31,30.33,10.0,South,21.9,28.8,N/A,,Clear,170,2013-05-23 15:52:00
10:12 AM,44.6,14.0,29,30.33,10.0,South,25.3,-,N/A,,Clear,170,2013-05-23 16:12:00
10:32 AM,44.6,17.6,34,30.33,10.0,SSE,19.6,-,N/A,,Clear,160,2013-05-23 16:32:00
10:52 AM,46.4,17.6,32,30.34,10.0,SSE,20.7,25.3,N/A,,Clear,160,2013-05-23 16:52:00
11:12 AM,46.4,19.4,34,30.34,10.0,SSE,17.3,21.9,N/A,,Clear,160,2013-05-23 17:12:00
11:32 AM,46.4,19.4,34,30.34,10.0,SSE,16.1,28.8,N/A,,Clear,160,2013-05-23 17:32:00
11:52 AM,48.2,21.2,34,30.34,10.0,South,17.3,24.2,N/A,,Clear,170,2013-05-23 17:52:00
12:12 PM,46.4,23.0,40,30.35,10.0,South,18.4,27.6,N/A,,Clear,180,2013-05-23 18:12:00
12:32 PM,51.8,23.0,33,30.33,10.0,SE,17.3,21.9,N/A,,Clear,130,2013-05-23 18:32:00
12:52 PM,51.8,21.2,30,30.33,10.0,ESE,12.7,21.9,N/A,,Clear,120,2013-05-23 18:52:00
1:12 PM,51.8,21.2,30,30.34,10.0,South,16.1,21.9,N/A,,Clear,180,2013-05-23 19:12:00
1:32 PM,51.8,23.0,33,30.33,10.0,ESE,11.5,27.6,N/A,,Clear,110,2013-05-23 19:32:00
1:52 PM,53.6,21.2,28,30.33,10.0,ESE,10.4,21.9,N/A,,Scattered Clouds,120,2013-05-23 19:52:00
2:12 PM,53.6,19.4,26,30.33,10.0,SE,15.0,24.2,N/A,,Scattered Clouds,140,2013-05-23 20:12:00
2:32 PM,53.6,19.4,26,30.31,10.0,ESE,16.1,21.9,N/A,,Mostly Cloudy,110,2013-05-23 20:32:00
2:52 PM,53.6,19.4,26,30.31,10.0,SE,15.0,26.5,N/A,,Mostly Cloudy,130,2013-05-23 20:52:00
3:12 PM,53.6,17.6,24,30.32,10.0,SE,8.1,25.3,N/A,,Mostly Cloudy,140,2013-05-23 21:12:00
3:32 PM,53.6,15.8,22,30.31,10.0,SE,12.7,18.4,N/A,,Mostly Cloudy,130,2013-05-23 21:32:00
3:52 PM,53.6,12.2,19,30.31,10.0,SSE,16.1,26.5,N/A,,Mostly Cloudy,160,2013-05-23 21:52:00
4:12 PM,53.6,8.6,16,30.30,10.0,SSE,31.1,39.1,N/A,,Mostly Cloudy,160,2013-05-23 22:12:00
4:32 PM,53.6,10.4,18,30.31,10.0,SSE,13.8,28.8,N/A,,Overcast,150,2013-05-23 22:32:00
4:52 PM,53.6,6.8,15,30.30,10.0,SSE,25.3,29.9,N/A,,Overcast,160,2013-05-23 22:52:00
5:12 PM,53.6,8.6,16,30.30,10.0,SSE,20.7,25.3,N/A,,Overcast,160,2013-05-23 23:12:00
5:32 PM,53.6,10.4,18,30.31,10.0,SSE,18.4,24.2,N/A,,Mostly Cloudy,160,2013-05-23 23:32:00
5:52 PM,53.6,10.4,18,30.30,10.0,SSE,19.6,29.9,N/A,,Overcast,160,2013-05-23 23:52:00
6:12 PM,53.6,8.6,16,30.31,10.0,South,25.3,34.5,N/A,,Overcast,170,2013-05-24 00:12:00
6:32 PM,53.6,8.6,16,30.31,10.0,South,16.1,25.3,N/A,,Overcast,180,2013-05-24 00:32:00
6:52 PM,53.6,8.6,16,30.32,10.0,SSW,12.7,20.7,N/A,,Overcast,200,2013-05-24 00:52:00
7:12 PM,53.6,8.6,16,30.32,10.0,South,18.4,33.4,N/A,,Scattered Clouds,180,2013-05-24 01:12:00
7:32 PM,53.6,8.6,16,30.32,10.0,South,25.3,31.1,N/A,,Clear,180,2013-05-24 01:32:00
7:52 PM,51.8,12.2,21,30.31,10.0,SSE,23.0,34.5,N/A,,Scattered Clouds,160,2013-05-24 01:52:00
8:12 PM,51.8,14.0,22,30.33,10.0,South,16.1,25.3,N/A,,Scattered Clouds,190,2013-05-24 02:12:00
8:32 PM,51.8,12.2,21,30.32,10.0,SSE,21.9,28.8,N/A,,Mostly Cloudy,160,2013-05-24 02:32:00
8:52 PM,50.0,12.2,22,30.33,10.0,South,19.6,-,N/A,,Scattered Clouds,170,2013-05-24 02:52:00
9:12 PM,50.0,12.2,22,30.33,10.0,South,21.9,28.8,N/A,,Clear,170,2013-05-24 03:12:00
9:32 PM,50.0,10.4,20,30.33,10.0,South,25.3,31.1,N/A,,Clear,170,2013-05-24 03:32:00
9:52 PM,48.2,12.2,24,30.33,10.0,South,28.8,35.7,N/A,,Clear,170,2013-05-24 03:52:00
10:12 PM,48.2,12.2,24,30.33,10.0,South,24.2,35.7,N/A,,Clear,170,2013-05-24 04:12:00
10:32 PM,48.2,12.2,24,30.34,10.0,South,21.9,31.1,N/A,,Clear,170,2013-05-24 04:32:00
10:52 PM,46.4,12.2,25,30.34,10.0,South,20.7,25.3,N/A,,Clear,180,2013-05-24 04:52:00
11:12 PM,46.4,12.2,25,30.33,10.0,South,27.6,-,N/A,,Clear,170,2013-05-24 05:12:00
11:32 PM,46.4,10.4,23,30.33,10.0,SSE,25.3,-,N/A,,Clear,160,2013-05-24 05:32:00
11:52 PM,46.4,14.0,27,30.32,10.0,SSE,24.2,-,N/A,,Clear,160,2013-05-24 05:52:00